Snowmass, USA 16 day weather forecast

Slopes altitude range 2470 m - 3815m

Number of lifts: 17 Pistes: 241km

In some cases the lift and piste totals shown are for the ski domain (e.g. Three Valleys) rather than individual resort (e.g. Courchevel)

Overview

The 16 day weather forecast is fully updated 4 times every day.

    • Wed 26 JUN 2019
    • Wed 26
    • 3C 3C
    • Thu 27 JUN 2019
    • Thu 27
    • 3C 5C
    • Fri 28 JUN 2019
    • Fri 28
    • 3C 6C
    • Sat 29 JUN 2019
    • Sat 29
    • 5C 7C
    • Sun 30 JUN 2019
    • Sun 30
    • 4C 6C
    • Mon 01 JUL 2019
    • Mon 01
    • 4C 6C
    • Tue 02 JUL 2019
    • Tue 02
    • 4C 5C
    • Wed 03 JUL 2019
    • Wed 03
    • 3C 5C
    • Thu 04 JUL 2019
    • Thu 04
    • 3C 5C
    • Fri 05 JUL 2019
    • Fri 05
    • 4C 5C
    • Sat 06 JUL 2019
    • Sat 06
    • 4C 6C
    • Sun 07 JUL 2019
    • Sun 07
    • 4C 6C
    • Mon 08 JUL 2019
    • Mon 08
    • 6C 6C
    • Tue 09 JUL 2019
    • Tue 09
    • 4C 6C
    • Wed 10 JUL 2019
    • Wed 10
    • 5C 8C
    • Thu 11 JUL 2019
    • Thu 11
    • 4C 6C

Date:

Time Type 0°C level Temp Chill Snow Cloud Speed Gust Dir Press
3:00 4659m 3°C 3_5 0cm 77% 5mph 6mph 1015mB
6:00 4703m 3°C 3_5 0cm 81% 5mph 6mph 1017mB
9:00 4698m 3°C 3_6 0cm 33% 6mph 7mph 1017mB
12:00 4633m 3°C 3_6 0cm 67% 6mph 7mph 1018mB
15:00 4621m 12°C 12_7 0cm 41% 7mph 9mph 1017mB
18:00 4675m 15°C 15_16 0cm 37% 16mph 22mph 1015mB
21:00 4726m 15°C 15_18 0cm 39% 18mph 25mph 1014mB
0:00 4745m 14°C 14_16 0cm 41% 16mph 24mph 1014mB
3:00 4767m 4°C 4_2 0cm 29% 2mph 4mph 1018mB
6:00 4678m 4°C 4_6 0cm 14% 6mph 7mph 1020mB
9:00 4631m 3°C 3_8 0cm 0% 8mph 9mph 1022mB
12:00 4541m 5°C 5_6 0cm 0% 6mph 8mph 1023mB
15:00 4472m 11°C 11_12 0cm 50% 12mph 26mph 1020mB
18:00 4657m 15°C 15_19 0cm 30% 19mph 28mph 1018mB
21:00 4834m 15°C 15_17 0cm 37% 17mph 25mph 1017mB
0:00 4915m 14°C 14_10 0cm 48% 10mph 20mph 1015mB
3:00 4930m 7°C 7_5 0cm 35% 5mph 7mph 1019mB
6:00 4831m 5°C 5_3 0cm 18% 3mph 4mph 1021mB
9:00 4746m 4°C 4_7 0cm 17% 7mph 9mph 1022mB
12:00 4691m 6°C 6_8 0cm 17% 8mph 10mph 1023mB
15:00 4709m 12°C 12_11 0cm 2% 11mph 25mph 1021mB
18:00 4746m 16°C 16_16 0cm 4% 16mph 24mph 1019mB
21:00 4920m 16°C 16_16 0cm 0% 16mph 22mph 1017mB
0:00 4975m 16°C 16_14 0cm 13% 14mph 19mph 1015mB
3:00 4989m 8°C 8_3 0cm 40% 3mph 5mph 1018mB
6:00 4952m 7°C 7_4 0cm 41% 4mph 5mph 1021mB
9:00 4792m 6°C 6_5 0cm 65% 5mph 6mph 1022mB
12:00 4755m 7°C 7_4 0cm 58% 4mph 4mph 1023mB
15:00 4916m 14°C 14_3 0cm 63% 3mph 4mph 1021mB
18:00 4837m 16°C 16_6 0cm 82% 6mph 9mph 1019mB
21:00 4925m 15°C 15_7 0cm 100% 7mph 6mph 1017mB
0:00 5015m 10°C 10_2 0cm 100% 2mph 5mph 1019mB
3:00 4837m 7°C 7_5 0cm 100% 5mph 6mph 1021mB
6:00 4800m 5°C 5_4 0cm 86% 4mph 5mph 1023mB
9:00 4770m 5°C 5_4 0cm 100% 4mph 5mph 1023mB
12:00 4614m 6°C 6_2 0cm 100% 2mph 3mph 1023mB
15:00 4594m 11°C 11_3 0cm 100% 3mph 3mph 1021mB
18:00 4611m 14°C 14_5 0cm 88% 5mph 6mph 1018mB
21:00 4753m 10°C 10_5 0cm 91% 5mph 7mph 1017mB
0:00 4680m 10°C 10_4 0cm 69% 4mph 6mph 1018mB
3:00 4726m 8°C 8_2 0cm 64% 2mph 3mph 1019mB
6:00 4654m 6°C 6_2 0cm 83% 2mph 3mph 1020mB
9:00 4589m 4°C 4_3 0cm 87% 3mph 5mph 1021mB
12:00 4518m 6°C 6_1 0cm 93% 1mph 2mph 1021mB
15:00 4562m 11°C 11_4 0cm 31% 4mph 4mph 1019mB
18:00 4674m 14°C 14_4 0cm 31% 4mph 5mph 1016mB
21:00 4752m 13°C 13_9 0cm 50% 9mph 10mph 1014mB
0:00 4705m 13°C 13_6 0cm 52% 6mph 12mph 1014mB
3:00 4687m 6°C 6_1 0cm 35% 1mph 2mph 1016mB
6:00 4654m 5°C 5_2 0cm 32% 2mph 3mph 1017mB
9:00 4632m 5°C 5_1 0cm 58% 1mph 3mph 1016mB
12:00 4618m 5°C 5_4 0cm 29% 4mph 5mph 1017mB
15:00 4593m 13°C 13_5 0cm 0% 5mph 10mph 1015mB
18:00 4664m 15°C 15_12 0cm 17% 12mph 13mph 1013mB
21:00 4742m 15°C 15_15 0cm 74% 15mph 15mph 1011mB
0:00 4800m 15°C 15_15 0cm 46% 15mph 20mph 1010mB
3:00 4742m 7°C 7_6 0cm 0% 6mph 8mph 1013mB
6:00 4655m 4°C 4_1 0cm 0% 1mph 3mph 1015mB
9:00 4605m 4°C 4_4 0cm 0% 4mph 5mph 1014mB
12:00 4584m 5°C 5_5 0cm 0% 5mph 6mph 1016mB
15:00 4574m 12°C 12_7 0cm 0% 7mph 9mph 1014mB
18:00 4679m 15°C 15_11 0cm 0% 11mph 13mph 1012mB
21:00 4836m 15°C 15_8 0cm 0% 8mph 12mph 1010mB
0:00 4863m 15°C 15_9 0cm 25% 9mph 11mph 1010mB
3:00 4763m 7°C 7_3 0cm 65% 3mph 4mph 1014mB
6:00 4699m 5°C 5_1 0cm 44% 1mph 4mph 1016mB
9:00 4661m 4°C 4_4 0cm 0% 4mph 5mph 1016mB
12:00 4620m 5°C 5_5 0cm 0% 5mph 6mph 1018mB
15:00 4608m 12°C 12_6 0cm 0% 6mph 11mph 1016mB
18:00 4766m 16°C 16_11 0cm 0% 11mph 14mph 1015mB
21:00 4932m 16°C 16_11 0cm 18% 11mph 14mph 1013mB
0:00 4924m 16°C 16_11 0cm 23% 11mph 13mph 1013mB
3:00 4864m 6°C 6_3 0cm 0% 3mph 4mph 1016mB
6:00 4860m 5°C 5_1 0cm 0% 1mph 3mph 1019mB
9:00 4846m 4°C 4_3 0cm 0% 3mph 4mph 1019mB
12:00 4825m 5°C 5_5 0cm 0% 5mph 6mph 1021mB
15:00 4749m 14°C 14_7 0cm 0% 7mph 13mph 1019mB
18:00 4875m 17°C 17_12 0cm 0% 12mph 15mph 1017mB
21:00 5049m 17°C 17_10 0cm 10% 10mph 14mph 1015mB
0:00 4995m 15°C 15_6 0cm 48% 6mph 13mph 1015mB
Afternoon 0mm 0 4835m 6°C 6_3 0cm 0% 3mph 5mph 1022mB
Morning 0.0208333mm 0 4974m 11°C 11_8 0cm 47% 8mph 8mph 1015mB
Afternoon 0mm 0 4831m 6°C 6_3 0cm 34% 3mph 4mph 1021mB
Morning 0mm 0 5038m 17°C 17_5 0cm 93% 5mph 5mph 1015mB
Afternoon 0mm 0 4890m 6°C 6_4 0cm 86% 4mph 5mph 1021mB
Morning 0.520833mm 0.125 4679m 8°C 8_2 0cm 100% 2mph 3mph 1018mB
Afternoon 0.0208333mm 0 4763m 6°C 6_5 0cm 84% 5mph 6mph 1022mB
Morning 0.0208333mm 0.0625 4936m 13°C 13_4 0cm 66% 4mph 5mph 1016mB
Afternoon 0mm 0 4646m 8°C 8_5 0cm 70% 5mph 6mph 1022mB
Morning 1.39583mm 1.875 4881m 12°C 12_6 0cm 54% 6mph 6mph 1017mB
Afternoon 0.0208333mm 0 4725m 6°C 6_1 0cm 13% 1mph 3mph 1024mB
Morning 0.958333mm 2.9375 5001m 13°C 13_3 0cm 71% 3mph 3mph 1019mB

16 day outlook at a glance

Forecast issued: 6/26/2019 8:05:15 AM

Chat

Your comments and questions. In a resort? Let us know what it's like!


Characters left 250

For terms and conditions see Readers Comments on the Cookie and privacy policy page.